Change the Weather History Date:

Saturday, September 1, 2012

  Actual Average Record
Temperature  
Mean Temperature 81 °F -  
Max Temperature 88 °F 89 °F 100 °F (1954)
Min Temperature 75 °F 72 °F 62 °F (1992)
Cooling Degree Days 16    
Growing Degree Days 31 (Base 50)    
Moisture  
Dew Point 75 °F    
Average Humidity 87    
Maximum Humidity 100    
Minimum Humidity 61    
Precipitation  
Precipitation 0.00 in - - ()
Sea Level Pressure  
Sea Level Pressure 30.13 in    
Wind  
Wind Speed 1 mph (SSW)    
Max Wind Speed 7 mph    
Max Gust Speed -    
Visibility 6 miles    
Events Fog    
Averages and records for this station are not official NWS values.
T = Trace of Precipitation, MM = Missing Value Source: NWS Daily Summary

Daily Weather History Graph

Daily Weather History Graph

Search for Another Location

Airport or City:

Trip Planner

Search our weather history database for the weather conditions in past years. The results will help you decide how hot, cold, wet, or windy it might be!

Date:

Astronomy

Sep. 01, 2012 Rise Set
Actual Time 6:31 AM CDT 7:16 PM CDT
Civil Twilight 6:06 AM CDT 7:40 PM CDT
Nautical Twilight 5:37 AM CDT 8:09 PM CDT
Astronomical Twilight 5:08 AM CDT 8:38 PM CDT
Moon 7:44 PM CDT (9/1) 7:29 AM CDT (9/1)
Length of Visible Light 13h 34m
Length of Day
12h 45m
Full, 99% of the Moon is Illuminated
Sep 1
Full
Sep 8
Last Quarter
Sep 15
New
Sep 22
First Quarter
Sep 29
Full

Hourly Weather History & Observations

Time (CDT) Temp. Heat Index Dew Point Humidity Pressure Visibility Wind Dir Wind Speed Gust Speed Precip Events Conditions
12:53 AM 80.1 °F 85.8 °F 77.0 °F 90% 30.13 in 10.0 mi South 3.5 mph - N/A   Clear
1:53 AM 78.1 °F - 75.9 °F 93% 30.13 in 8.0 mi Calm Calm - N/A   Clear
2:53 AM 78.1 °F - 75.9 °F 93% 30.12 in 6.0 mi Calm Calm - N/A   Clear
3:17 AM 77.0 °F - 75.2 °F 94% 30.11 in 1.8 mi Calm Calm - N/A   Clear
3:24 AM 77.0 °F - 75.2 °F 94% 30.11 in 3.0 mi Calm Calm - N/A   Partly Cloudy
3:53 AM 75.9 °F - 75.0 °F 97% 30.11 in 2.5 mi Calm Calm - N/A   Scattered Clouds
4:01 AM 75.2 °F - 75.2 °F 100% 30.11 in 2.5 mi Calm Calm - N/A   Mostly Cloudy
4:11 AM 75.2 °F - 75.2 °F 100% 30.11 in 4.0 mi Calm Calm - N/A   Mostly Cloudy
4:30 AM 75.2 °F - 75.2 °F 100% 30.10 in 1.5 mi Calm Calm - N/A   Mostly Cloudy
4:40 AM 75.2 °F - 73.4 °F 94% 30.11 in 0.8 mi Calm Calm - N/A   Mist
5:04 AM 75.2 °F - 73.4 °F 94% 30.11 in 0.8 mi Calm Calm - N/A   Mist
5:51 AM 75.2 °F - 73.4 °F 94% 30.12 in 2.0 mi Calm Calm - N/A   Mostly Cloudy
5:52 AM 75.0 °F - 73.9 °F 96% 30.12 in 2.5 mi Calm Calm - N/A   Mostly Cloudy
6:00 AM 75.2 °F - 73.4 °F 94% 30.12 in 3.0 mi Calm Calm - N/A   Mostly Cloudy
6:02 AM 75.2 °F - 73.4 °F 94% 30.12 in 1.2 mi Calm Calm - N/A   Mostly Cloudy
6:04 AM 75.2 °F - 73.4 °F 94% 30.12 in 0.8 mi Calm Calm - N/A   Mist
6:24 AM 75.2 °F - 73.4 °F 94% 30.13 in 1.5 mi Calm Calm - N/A   Overcast
6:34 AM 75.2 °F - 73.4 °F 94% 30.13 in 0.5 mi Calm Calm - N/A Fog Fog
6:43 AM 75.2 °F - 73.4 °F 94% 30.13 in 0.5 mi Calm Calm - N/A Fog Fog
6:53 AM 75.9 °F - 73.9 °F 94% 30.14 in 0.5 mi Calm Calm - N/A Fog Fog
7:13 AM 75.2 °F - 75.2 °F 100% 30.14 in 0.2 mi Calm Calm - N/A Fog Fog
7:26 AM 77.0 °F - 75.2 °F 94% 30.15 in 1.0 mi Calm Calm - N/A   Mist
7:30 AM 77.0 °F - 75.2 °F 94% 30.15 in 3.0 mi Calm Calm - N/A   Mostly Cloudy
7:37 AM 77.0 °F - 75.2 °F 94% 30.15 in 2.5 mi Calm Calm - N/A   Scattered Clouds
7:51 AM 78.8 °F - 77.0 °F 94% 30.15 in 5.0 mi Calm Calm - N/A   Scattered Clouds
7:53 AM 78.1 °F - 77.0 °F 96% 30.16 in 5.0 mi Calm Calm - N/A   Scattered Clouds
8:53 AM 82.0 °F 90.2 °F 77.0 °F 85% 30.17 in 10.0 mi SSW 5.8 mph - N/A   Partly Cloudy
9:00 AM 82.4 °F 89.5 °F 75.2 °F 79% 30.16 in 10.0 mi South 5.8 mph - N/A   Mostly Cloudy
9:09 AM 82.4 °F 89.5 °F 75.2 °F 79% 30.16 in 10.0 mi South 6.9 mph - N/A   Mostly Cloudy
9:28 AM 82.4 °F 89.5 °F 75.2 °F 79% 30.17 in 10.0 mi Variable 4.6 mph - N/A   Mostly Cloudy
9:53 AM 82.9 °F 89.4 °F 73.9 °F 74% 30.18 in 10.0 mi SSW 5.8 mph - N/A   Partly Cloudy
10:53 AM 84.0 °F 91.2 °F 73.9 °F 72% 30.18 in 10.0 mi SW 4.6 mph - N/A   Clear
11:53 AM 86.0 °F 91.5 °F 71.1 °F 61% 30.17 in 10.0 mi WSW 4.6 mph - N/A   Partly Cloudy
12:53 PM 86.0 °F 93.0 °F 73.0 °F 65% 30.16 in 10.0 mi SW 5.8 mph - N/A   Clear
1:53 PM 86.0 °F 95.1 °F 75.0 °F 70% 30.13 in 10.0 mi Variable 5.8 mph - N/A   Clear
2:53 PM 87.1 °F 95.4 °F 73.9 °F 65% 30.10 in 10.0 mi Variable 5.8 mph - N/A   Clear
3:53 PM 86.0 °F 93.8 °F 73.9 °F 67% 30.09 in 10.0 mi South 5.8 mph - N/A   Clear
4:53 PM 86.0 °F 92.2 °F 72.0 °F 63% 30.09 in 10.0 mi South 6.9 mph - N/A   Clear
5:53 PM 84.9 °F 93.3 °F 75.0 °F 72% 30.09 in 10.0 mi SSW 6.9 mph - N/A   Clear
6:53 PM 82.9 °F 90.2 °F 75.0 °F 77% 30.10 in 10.0 mi SW 4.6 mph - N/A   Clear
7:53 PM 81.0 °F 87.9 °F 77.0 °F 88% 30.09 in 10.0 mi Calm Calm - N/A   Clear
8:53 PM 80.1 °F 85.4 °F 75.9 °F 87% 30.09 in 10.0 mi Calm Calm - N/A   Clear
9:53 PM 80.1 °F 85.8 °F 77.0 °F 90% 30.11 in 10.0 mi Calm Calm - N/A   Clear
10:53 PM 79.0 °F - 75.9 °F 90% 30.11 in 10.0 mi Calm Calm - N/A   Clear
11:38 PM 78.8 °F - 75.2 °F 89% 30.10 in 10.0 mi Calm Calm - N/A   Mostly Cloudy
11:53 PM 79.0 °F - 75.9 °F 90% 30.11 in 10.0 mi Calm Calm - N/A   Mostly Cloudy